Regional Weather Roundup
Issued by NWS

Home | Current Version | Previous Version | Graphics & Text | Print | Product List | Glossary On
Versions: 1 2 3 4 5 6 7 8 9 10 11 12 13 14 15 16 17 18 19 20 21 22 23 24 25 26 27 28 29 30 31 32 33 34 35 36 37 38 39 40 41 42 43 44 45 46 47 48 49 50
000
ASUS43 KMPX 261201
RWRMN
WEATHER ROUNDUP FOR MINNESOTA
NATIONAL WEATHER SERVICE TWIN CITIES/CHANHASSEN MN
600 AM CST SUN FEB 26 2017


NOTE: "FAIR" INDICATES FEW OR NO CLOUDS BELOW 12,000 FEET WITH NO
SIGNIFICANT WEATHER AND/OR OBSTRUCTIONS TO VISIBILITY. N/A MEANS
CURRENT SKY AND/OR WEATHER CONDITIONS ARE NOT AVAILABLE.

MNZ060>063-068>070-261300-
   Twin Cities Metro

CITY           SKY/WX    TMP DP  RH WIND       PRES   REMARKS
TWIN CITIES    PTCLDY    24  16  71 SW8       29.74S WCI  15
6HR MIN TEMP:  24; 6HR MAX TEMP:  26;

ST PAUL        PTCLDY    24  18  77 S3        29.75S
CRYSTAL        CLOUDY    23  15  71 S7        29.72S WCI  15
BLAINE         CLOUDY    27  19  74 SW8       29.72S WCI  18
LAKEVILLE      PTCLDY    21  18  86 SW5       29.74S WCI  15
EDEN PRAIRIE   PTCLDY    22  16  78 SW7       29.73S WCI  13
6HR MIN TEMP:  22; 6HR MAX TEMP:  25;

SOUTH ST PAUL  PTCLDY    25  18  75 S3        29.74S
LAKE ELMO      FAIR      25  19  80 S5        29.73F WCI  19
$$
MNZ001>005-007-008-013>017-022>024-027-028-261300-
   Northwest Minnesota

CITY           SKY/WX    TMP DP  RH WIND       PRES   REMARKS
BEMIDJI        LGT SNOW  12   8  86 N10       29.67R WCI  -2
HALLOCK        CLEAR      3   0  85 NW5       29.77R WCI  -6
ROSEAU         CLEAR      5   0  78 CALM      29.73S
WARROAD        CLEAR      3   0  85 W3        29.72S
THIEF RVR FALL   N/A    N/A N/A N/A MISG        N/A
CROOKSTON      PTCLDY    10   7  85 N8        29.77R WCI  -1
FOSSTON        LGT SNOW  10   7  85 N9        29.71R WCI  -2
DETROIT LAKES  FLURRIES  18  14  86 N14       29.68R WCI   4
MOORHEAD       MIX PCPN  14  10  85 N17       29.75R WCI  -3
PARK RAPIDS    LGT SNOW  22  17  81 N14       29.62S WCI   9
MAHNOMEN       LGT SNOW  13   9  85 N13       29.70R WCI  -2
$$
MNZ006-009>011-018-025>026-261300-
   North Central Minnesota

CITY           SKY/WX    TMP DP  RH WIND       PRES   REMARKS
BAUDETTE       PTCLDY     7  -2  66 NW8       29.70R WCI  -6
FLAG ISLAND    CLEAR      3   0  85 NW8       29.71R WCI -10
INTL FALLS     LGT SNOW  10   6  84 W5        29.67R FOG     WCI   2
6HR MIN TEMP:   7; 6HR MAX TEMP:  13; 6HR PCP:  0.02;

WASKISH        CLOUDY     9   5  85 N7        29.70R WCI  -3
BIG FORK       LGT SNOW  12   9  85 CALM      29.65S
LONGVILLE      LGT SNOW  23  21  93 W3        29.63S VSB 1
GRAND RAPIDS   LGT SNOW  21  19  92 N6        29.64S VSB 3/4 WCI  13
CRANE LAKE     LGT SNOW  12   9  85 NW3       29.68R VSB 1
ORR            LGT SNOW  12   9  85 CALM      29.62S
COOK           LGT SNOW  14  10  85 NW5       29.63S WCI   6
WALKER         LGT SNOW  16  13  87 N12       29.65R WCI   3
$$
MNZ012-019>021-037-261300-
   Northeast Minnesota

CITY           SKY/WX    TMP DP  RH WIND       PRES   REMARKS
DULUTH         CLOUDY    24  22  91 SW10      29.61F WCI  14
6HR MIN TEMP:  24; 6HR MAX TEMP:  26; 6HR PCP:  0.12;

ELY            LGT SNOW  16  14  93 NW3       29.62R
HIBBING        CLOUDY    19  14  81 CALM      29.61F
EVELETH        CLOUDY    20  15  82 CALM      29.62S
DULUTH HARBOR  CLOUDY    27  23  86 CALM      29.67S
TWO HARBORS    CLOUDY    27  21  80 CALM      29.61S
SILVER BAY     CLOUDY    18  16  93 CALM      29.61S
GRAND MARAIS     N/A     24  16  71 CALM      29.64F
G MARAIS ARPRT CLOUDY    12   9  85 NW3       29.58S
$$
MNZ029>031-032-039>041-046>048-054>057-064-261300-
   West Central Minnesota

CITY           SKY/WX    TMP DP  RH WIND       PRES   REMARKS
FERGUS FALLS   CLOUDY    21  21 100 N10       29.72R WCI  10
WHEATON        CLOUDY    27  25  93 W12       29.72R WCI  16
MORRIS         MOCLDY    27  25  93 SW9       29.68S WCI  17
ALEXANDRIA     CLOUDY    26  24  92 SW10      29.66S WCI  16
ELBOW LAKE     CLOUDY    24  24  99 SW7       29.68R WCI  16
WADENA         MIX PCPN  19  18  93 CALM      29.64S
GLENWOOD       CLOUDY    27  25  93 SW9       29.67S WCI  17
APPLETON       PTCLDY    25  21  86 W5        29.71R WCI  19
BENSON         PTCLDY    27  21  80 W5        29.71S WCI  21
ORTONVILLE     CLEAR     25  21  86 CALM      29.71R
MADISON        PTCLDY    30  27  86 SW9       29.71R WCI  22
WILLMAR        CLOUDY    27  25  93 W6        29.72R WCI  20
$$
MNZ033>034-036-042>043-049>051-058-059-261300-
   Central Minnesota

CITY           SKY/WX    TMP DP  RH WIND       PRES   REMARKS
ST CLOUD       MOCLDY    25  22  88 SW8       29.68F WCI  16
6HR MIN TEMP:  25; 6HR MAX TEMP:  27; 6HR PCP: TRACE;

SAUK CENTRE    CLOUDY    25  23  93 SW7       29.67S WCI  17
PAYNESVILLE    PTCLDY    23  23 100 SW6       29.70R WCI  16
AITKIN         CLOUDY    27  21  80 CALM      29.63R
PINE RIVER     FLURRIES  23  21  93 CALM      29.68S
BRAINERD       CLOUDY    23  23 100 W6        29.65R WCI  16
STAPLES        LGT SNOW  19  19 100 CALM      29.64F
LONG PRAIRIE   FLURRIES  27  23  86 S8        29.66S WCI  18
LITTLE FALLS   CLOUDY    28  23  80 SW5       29.67R WCI  23
LITCHFIELD     MOCLDY    25  21  86 CALM      29.70S
BUFFALO        PTCLDY    23  19  87 S3        29.72S
MAPLE LAKE     CLEAR     23  21  93 CALM      29.71F
HUTCHINSON     CLEAR     23  21  92 SW5       29.72S WCI  17
$$
MNZ037-044-045-052-053-261300-
   East Central Minnesota

CITY           SKY/WX    TMP DP  RH WIND       PRES   REMARKS
PRINCETON      CLOUDY    27  21  80 S6        29.69S WCI  20
MORA           MOCLDY    27  23  86 SW7       29.69S WCI  19
CAMBRIDGE      CLOUDY    27  19  74 S6        29.68S WCI  20
RUSH CITY      CLOUDY    25  19  80 S7        29.69F WCI  17
MOOSE LAKE     CLOUDY    27  21  80 SW8       29.64R WCI  18
HINCKLEY       CLOUDY    27  23  86 SW6       29.67F WCI  20
CLOQUET        CLOUDY    25  21  86 SW6       29.62F WCI  18
MCGREGOR       CLOUDY    27  25  93 CALM      29.64R
$$
MNZ071>073-080-081-089-090-097-098-261300-
   Southwest Minnesota

CITY           SKY/WX    TMP DP  RH WIND       PRES   REMARKS
MONTEVIDEO     CLOUDY    27  23  86 CALM      29.72F
GRANITE FALLS  CLOUDY    27  23  85 S8        29.74R WCI  19
CANBY          PTCLDY    27  24  89 SW3       29.73S
MARSHALL       PTCLDY    24  21  88 W12       29.73R WCI  13
REDWOOD FALLS  CLOUDY    24  18  77 SW6       29.73R WCI  17
OLIVIA         CLEAR     27  23  86 SW6       29.72S WCI  20
PIPESTONE      MOCLDY    23  18  80 SW8       29.73R WCI  14
WINDOM         CLEAR     19  18  93 SW6       29.73F WCI  11
WORTHINGTON    CLEAR     20  16  84 SW13      29.74S WCI   7
JACKSON        CLEAR     19  14  79 W5        29.75S WCI  13
TRACY          CLEAR     24  21  89 SW12      29.72S WCI  13
SLAYTON        CLOUDY    23  20  87 W13       29.73R WCI  11
$$
MNZ065>067-074>077-082>085-091>093-261300-
   South Central Minnesota

CITY           SKY/WX    TMP DP  RH WIND       PRES   REMARKS
MANKATO          N/A     18  15  88 S8        29.76R WCI   8
NEW ULM        CLEAR     21  18  86 SW8       29.74S WCI  12
ST JAMES       CLEAR     19  18  93 CALM      29.76S
FAIRMONT       CLEAR     20  16  84 W16       29.76S WCI   6
GLENCOE        PTCLDY    23  22  95 S6        29.72S WCI  16
FARIBAULT      PTCLDY    19  16  86 SW5       29.76R WCI  13
OWATONNA       CLEAR     18  12  79 SW10      29.75S WCI   6
WASECA         CLEAR     18  14  86 SW6       29.77R WCI   9
ALBERT LEA     CLEAR     21  16  79 SW8       29.75S WCI  12
$$
MNZ078>079-086>088-094>096-261300-
   Southeast Minnesota

CITY           SKY/WX    TMP DP  RH WIND       PRES   REMARKS
ROCHESTER      CLEAR     21  16  81 SW15      29.75R WCI   8
6HR MIN TEMP:  21; 6HR MAX TEMP:  25;

RED WING       PTCLDY    25  16  68 W5        29.76R WCI  19
STANTON        CLEAR     20  15  82 SW8       29.74R WCI  10
WINONA         CLOUDY    30  19  64 SW8       29.79S WCI  23
AUSTIN         CLEAR     19  14  79 SW5       29.76R WCI  13
PRESTON        CLEAR     24  17  73 SW12G18   29.76F WCI  13
$$
ABBREVIATIONS USED IN REMARKS
   TC - TEMPERATURES IN CELSIUS
  WCI - WIND CHILL INDEX
   HX - HEAT INDEX
  VSB - VISIBILITY
$$



USA.gov is the U.S. government's official web portal to all federal, state and local government web resources and services.